Flight Track Log - Related Links

Times and Time Zones

All times are in EST time to prevent confusion due to time zone crossing. See the FSR411 flight status page for this flight to view local times or setup timezone preferences in your user account.

Time Position Orientation Groundspeed Altitude Reporting Facility
EST Latitude Longitude Course Direction KTS MPH feet Rate Location/Type
10:51AM 40.1033 -88.3150 355° North 215 247 11,000  Level Chicago Center
10:52AM 40.1572 -88.3200 356° North 226 260 7,000 -341 Descending Chicago Center
10:53AM 40.2347 -88.3289 355° North 257 296 10,300 1,951 Climbing Chicago Center
10:54AM 40.3406 -88.3472 352° North 320 368 11,000 341 Climbing Chicago Center
10:56AM 40.4328 -88.3617 353° North 332 382 11,000  Level Chicago Center
10:57AM 40.4889 -88.3525 355° North  Level FlightAware Approximate
10:57AM 40.5256 -88.3758 353° North 335 386 11,000  Level Chicago Center
10:58AM 40.6200 -88.3900 354° North 340 391 11,000  Level Chicago Center
10:59AM 40.7142 -88.4053 353° North 340 391 11,000  Level Chicago Center
11:00AM 40.8078 -88.4192 354° North 338 389 11,000  Level Chicago Center
11:01AM 40.9022 -88.4333 354° North 341 392 11,000  Level Chicago Center
11:02AM 41.0086 -88.4500 353° North 343 395 11,000  Level Chicago Center
11:03AM 41.1117 -88.4656 354° North 345 397 11,000 -683 Level Chicago Center
11:04AM 41.1897 -88.4789 353° North 287 330 9,600 -1,561 Descending Chicago Center
11:05AM 41.2606 -88.4892 354° North 261 300 7,800 -1,707 Descending Chicago Center
11:06AM 41.3314 -88.4997 354° North 258 297 6,100 -878 Descending Chicago Center
11:07AM 41.3881 -88.4628 26° Northeast 250 288 6,000 -49 Descending Chicago Center
11:08AM 41.4089 -88.3733 73° East 254 292 6,000 -98 Level Chicago Center
11:09AM 41.4242 -88.2828 77° East 251 289 5,800 -639 Descending Chicago Center
11:10AM 41.4458 -88.1883 73° East 247 284 4,700 -878 Descending Chicago Center
11:11AM 41.4903 -88.1242 47° Northeast 240 276 4,000 -339 Descending Chicago Center
11:12AM 41.5375 -88.0625 44° Northeast 237 273 4,000  Level Chicago Center
11:13AM 41.5886 -87.9994 43° Northeast 233 268 4,000  Level Chicago Center
11:14AM 41.6314 -87.9458 43° Northeast 214 246 4,000  Level Chicago Center
11:15AM 41.6703 -87.8950 44° Northeast 194 223 4,000 -537 Level Chicago Center
11:16AM 41.7047 -87.8517 43° Northeast 172 198 2,900 -984 Descending Chicago Center
11:17AM 41.7369 -87.8122 42° Northeast 144 166 2,000 -829 Descending Chicago Center
11:18AM 41.7608 -87.7822 43° Northeast 119 137 1,200 -634 Descending Chicago Center
11:19AM 41.7839 -87.7531 43° Northeast 119 137 700 -492 Descending Chicago Center

Login

Don't have an account? Register now (free) for customized features, flight alerts, and more!